KLM745 LEIB-EDDF

Flight info

Callsign KLM745
Flight time 2h 3m
Altitude 38000
Route KABRE DCT ELTAN N853 LUMAS DCT MAXIR DCT LUSOL DCT BODRU DCT OKTET DCT IRMAR DCT KINES DCT VANAS DCT ESOKO DCT GODRA/N0439F390 DCT LADOL/N0435F380 T163 EMPAX EMPAX5B
Aircraft A20N/M-SDE2E3FGHIRWXY/LB1

Departure

Time 2026-05-05 15:31
Airport Ibiza Airport (LEIB)

Arrival

Time 2026-05-05 17:34
Airport Frankfurt Main Airport (EDDF)
Time Latitude Longitude Altitude Speed Heading
2026-05-05 15:01 38.87507 1.36796 10 ft 0 kts 17°
2026-05-05 15:24 38.87508 1.36796 8 ft 0 kts 21°
2026-05-05 15:24 38.87509 1.36798 8 ft 0 kts 30°
2026-05-05 15:24 38.87510 1.36801 8 ft 0 kts 49°
2026-05-05 15:25 38.87510 1.36802 8 ft 0 kts 55°
2026-05-05 15:25 38.87510 1.36803 8 ft 0 kts 65°
2026-05-05 15:25 38.87503 1.36814 9 ft 3 kts 131°
2026-05-05 15:25 38.87474 1.36850 8 ft 7 kts 125°
2026-05-05 15:26 38.87486 1.36903 8 ft 7 kts 63°
2026-05-05 15:26 38.87512 1.36975 8 ft 11 kts 65°
2026-05-05 15:26 38.87551 1.37074 9 ft 14 kts 62°
2026-05-05 15:26 38.87602 1.37198 8 ft 17 kts 63°
2026-05-05 15:27 38.87663 1.37346 8 ft 20 kts 62°
2026-05-05 15:27 38.87675 1.37502 9 ft 14 kts 141°
2026-05-05 15:27 38.87593 1.37550 8 ft 13 kts 139°
2026-05-05 15:27 38.87607 1.37643 9 ft 12 kts 64°
2026-05-05 15:28 38.87654 1.37753 9 ft 15 kts 59°
2026-05-05 15:28 38.87709 1.37885 9 ft 18 kts 61°
2026-05-05 15:28 38.87773 1.38040 8 ft 21 kts 62°
2026-05-05 15:28 38.87846 1.38213 8 ft 24 kts 62°
2026-05-05 15:29 38.87927 1.38411 8 ft 26 kts 61°
2026-05-05 15:29 38.88005 1.38609 8 ft 19 kts 94°
2026-05-05 15:29 38.87940 1.38673 7 ft 13 kts 158°
2026-05-05 15:29 38.87848 1.38661 3 ft 15 kts 225°
2026-05-05 15:30 38.87795 1.38549 5 ft 15 kts 241°
2026-05-05 15:30 38.87703 1.38325 5 ft 63 kts 242°
2026-05-05 15:30 38.87374 1.37532 5 ft 135 kts 242°
2026-05-05 15:30 38.86857 1.36335 435 ft 154 kts 237°
2026-05-05 15:31 38.86177 1.35311 1428 ft 150 kts 223°
2026-05-05 15:31 38.85335 1.34461 2170 ft 164 kts 220°
2026-05-05 15:31 38.84409 1.33462 2768 ft 185 kts 223°
2026-05-05 15:31 38.83366 1.32299 3248 ft 209 kts 223°
2026-05-05 15:32 38.82202 1.31014 3663 ft 234 kts 222°
2026-05-05 15:32 38.80881 1.29574 4076 ft 260 kts 221°
2026-05-05 15:32 38.79404 1.28184 4929 ft 265 kts 210°
2026-05-05 15:32 38.77674 1.27497 6164 ft 260 kts 188°
2026-05-05 15:33 38.75896 1.27648 7327 ft 254 kts 171°
2026-05-05 15:33 38.74236 1.28233 8540 ft 242 kts 166°
2026-05-05 15:33 38.72669 1.28957 9567 ft 241 kts 164°
2026-05-05 15:33 38.71107 1.29757 10404 ft 240 kts 163°
2026-05-05 15:34 38.69658 1.30552 11059 ft 246 kts 163°
2026-05-05 15:34 38.67989 1.31464 11777 ft 251 kts 163°
2026-05-05 15:34 38.66393 1.32326 12508 ft 254 kts 164°
2026-05-05 15:34 38.64753 1.33205 13271 ft 256 kts 165°
2026-05-05 15:35 38.63081 1.34089 13844 ft 266 kts 165°
2026-05-05 15:35 38.61934 1.34688 14210 ft 271 kts 165°
2026-05-05 15:35 38.59601 1.36121 14713 ft 300 kts 150°
2026-05-05 15:35 38.58101 1.38132 15066 ft 328 kts 127°
2026-05-05 15:36 38.57419 1.39946 15372 ft 343 kts 112°
2026-05-05 15:36 38.56876 1.43009 15644 ft 366 kts 102°
2026-05-05 15:36 38.56524 1.46325 15839 ft 387 kts 100°
2026-05-05 15:36 38.56182 1.49816 16096 ft 403 kts 101°
2026-05-05 15:37 38.55798 1.53382 16677 ft 408 kts 101°
2026-05-05 15:37 38.55443 1.57002 17294 ft 415 kts 94°
2026-05-05 15:37 38.55743 1.60691 17888 ft 423 kts 76°
2026-05-05 15:37 38.56849 1.64188 18451 ft 427 kts 60°
2026-05-05 15:38 38.58314 1.67499 18983 ft 431 kts 58°
2026-05-05 15:38 38.59836 1.70828 19510 ft 435 kts 58°
2026-05-05 15:38 38.61367 1.74186 20051 ft 439 kts 58°
2026-05-05 15:38 38.62895 1.77578 20579 ft 443 kts 59°
2026-05-05 15:39 38.64439 1.81034 21084 ft 448 kts 59°
2026-05-05 15:39 38.65986 1.84516 21592 ft 453 kts 59°
2026-05-05 15:39 38.67542 1.88029 22109 ft 457 kts 59°
2026-05-05 15:39 38.69115 1.91589 22627 ft 461 kts 59°
2026-05-05 15:40 38.70701 1.95180 23115 ft 465 kts 60°
2026-05-05 15:40 38.72297 1.98798 23580 ft 470 kts 60°
2026-05-05 15:40 38.73912 2.02462 24013 ft 473 kts 60°
2026-05-05 15:40 38.75532 2.06141 24458 ft 475 kts 60°
2026-05-05 15:41 38.77056 2.09608 24859 ft 478 kts 60°
2026-05-05 15:41 38.78671 2.13284 25272 ft 481 kts 60°
2026-05-05 15:41 38.80318 2.17037 25692 ft 484 kts 60°
2026-05-05 15:41 38.81975 2.20817 26096 ft 487 kts 60°
2026-05-05 15:42 38.83633 2.24606 26491 ft 490 kts 60°
2026-05-05 15:42 38.85302 2.28423 26874 ft 493 kts 60°
2026-05-05 15:42 38.86984 2.32276 27259 ft 495 kts 60°
2026-05-05 15:42 38.88670 2.36142 27630 ft 498 kts 61°
2026-05-05 15:43 38.90361 2.40025 27986 ft 500 kts 61°
2026-05-05 15:43 38.92062 2.43935 28350 ft 503 kts 61°
2026-05-05 15:43 38.93777 2.47882 28686 ft 505 kts 61°
2026-05-05 15:43 38.95489 2.51828 29006 ft 508 kts 61°
2026-05-05 15:44 38.97209 2.55797 29338 ft 510 kts 61°
2026-05-05 15:44 38.98940 2.59797 29657 ft 512 kts 61°
2026-05-05 15:44 39.00670 2.63799 29978 ft 514 kts 61°
2026-05-05 15:44 39.02413 2.67836 30255 ft 517 kts 62°
2026-05-05 15:45 39.04155 2.71875 30545 ft 518 kts 62°
2026-05-05 15:45 39.05908 2.75947 30845 ft 520 kts 62°
2026-05-05 15:45 39.07659 2.80019 31157 ft 521 kts 62°
2026-05-05 15:45 39.09407 2.84088 31530 ft 520 kts 62°
2026-05-05 15:46 39.11159 2.88174 31911 ft 519 kts 62°
2026-05-05 15:46 39.12895 2.92225 32292 ft 518 kts 62°
2026-05-05 15:46 39.14636 2.96292 32643 ft 517 kts 62°
2026-05-05 15:46 39.16207 3.00106 32969 ft 516 kts 64°
2026-05-05 15:47 39.17831 3.04229 33308 ft 515 kts 65°
2026-05-05 15:47 39.19446 3.08366 33649 ft 515 kts 65°
2026-05-05 15:47 39.21034 3.12424 33955 ft 514 kts 65°
2026-05-05 15:47 39.22672 3.16591 34224 ft 514 kts 64°
2026-05-05 15:48 39.24266 3.20635 34475 ft 513 kts 64°
2026-05-05 15:48 39.25884 3.24741 34724 ft 513 kts 64°
2026-05-05 15:48 39.27501 3.28845 34971 ft 513 kts 64°
2026-05-05 15:48 39.29119 3.32954 35211 ft 512 kts 64°
2026-05-05 15:49 39.30729 3.37051 35446 ft 512 kts 64°
2026-05-05 15:49 39.32335 3.41144 35663 ft 512 kts 64°
2026-05-05 15:49 39.33915 3.45175 35884 ft 511 kts 64°
2026-05-05 15:49 39.35520 3.49277 36095 ft 511 kts 64°
2026-05-05 15:50 39.37122 3.53376 36300 ft 511 kts 64°
2026-05-05 15:50 39.38721 3.57475 36494 ft 511 kts 64°
2026-05-05 15:50 39.40321 3.61580 36695 ft 510 kts 64°
2026-05-05 15:50 39.41917 3.65683 36885 ft 510 kts 64°
2026-05-05 15:51 39.43509 3.69779 37059 ft 510 kts 64°
2026-05-05 15:51 39.45097 3.73869 37240 ft 510 kts 64°
2026-05-05 15:51 39.46685 3.77967 37404 ft 509 kts 64°
2026-05-05 15:51 39.48273 3.82069 37586 ft 509 kts 64°
2026-05-05 15:52 39.49859 3.86172 37736 ft 509 kts 64°
2026-05-05 15:52 39.51442 3.90272 37876 ft 509 kts 64°
2026-05-05 15:52 39.53027 3.94385 37913 ft 509 kts 64°
2026-05-05 15:53 39.56185 4.02590 37910 ft 508 kts 64°
2026-05-05 15:53 39.59638 4.10270 37913 ft 508 kts 48°
2026-05-05 15:53 39.62114 4.13501 37911 ft 505 kts 36°
2026-05-05 15:54 39.65009 4.16032 37914 ft 499 kts 23°
2026-05-05 15:54 39.68108 4.17755 37913 ft 491 kts 11°
2026-05-05 15:54 39.71408 4.18730 37914 ft 483 kts
2026-05-05 15:55 39.78070 4.20003 37923 ft 484 kts
2026-05-05 15:55 39.84682 4.21295 37912 ft 482 kts
2026-05-05 15:56 39.91315 4.22708 37913 ft 484 kts
2026-05-05 15:56 39.97947 4.24312 37913 ft 485 kts
2026-05-05 15:57 40.04568 4.25893 37910 ft 484 kts
2026-05-05 15:57 40.11210 4.27459 37908 ft 485 kts
2026-05-05 15:58 40.17854 4.29025 37907 ft 485 kts
2026-05-05 15:58 40.24490 4.30593 37901 ft 485 kts
2026-05-05 15:59 40.31143 4.32169 37898 ft 485 kts
2026-05-05 15:59 40.37593 4.33700 37898 ft 485 kts
2026-05-05 16:00 40.44237 4.35280 37893 ft 486 kts
2026-05-05 16:00 40.50894 4.36866 37893 ft 486 kts
2026-05-05 16:01 40.57503 4.38444 37901 ft 486 kts
2026-05-05 16:01 40.64170 4.40039 37896 ft 487 kts
2026-05-05 16:02 40.70617 4.41584 37894 ft 487 kts
2026-05-05 16:02 40.77294 4.43187 37894 ft 488 kts
2026-05-05 16:03 40.83975 4.44796 37894 ft 488 kts
2026-05-05 16:03 40.90664 4.46409 37909 ft 488 kts
2026-05-05 16:04 40.97171 4.47981 37898 ft 489 kts
2026-05-05 16:04 41.03870 4.49602 37899 ft 490 kts
2026-05-05 16:05 41.10567 4.51227 37900 ft 490 kts
2026-05-05 16:05 41.17280 4.52864 37905 ft 490 kts
2026-05-05 16:06 41.23948 4.54493 37898 ft 490 kts
2026-05-05 16:06 41.30653 4.56135 37899 ft 490 kts
2026-05-05 16:07 41.37301 4.57765 37903 ft 490 kts
2026-05-05 16:07 41.44013 4.59415 37901 ft 490 kts
2026-05-05 16:08 41.50725 4.61068 37901 ft 490 kts
2026-05-05 16:08 41.57428 4.62723 37896 ft 490 kts
2026-05-05 16:09 41.64133 4.64382 37898 ft 490 kts
2026-05-05 16:09 41.70640 4.66258 37895 ft 495 kts 11°
2026-05-05 16:10 41.77064 4.69771 37896 ft 504 kts 24°
2026-05-05 16:10 41.83113 4.74556 37893 ft 505 kts 26°
2026-05-05 16:11 41.89157 4.79386 37896 ft 505 kts 27°
2026-05-05 16:12 42.01215 4.89107 37895 ft 506 kts 27°
2026-05-05 16:13 42.16242 5.01303 37905 ft 506 kts 27°
2026-05-05 16:13 42.22266 5.06212 37910 ft 506 kts 27°
2026-05-05 16:14 42.34194 5.15963 37913 ft 506 kts 27°
2026-05-05 16:15 42.46217 5.25838 37919 ft 505 kts 27°
2026-05-05 16:16 42.58220 5.35740 37920 ft 504 kts 27°
2026-05-05 16:17 42.67208 5.43185 37918 ft 503 kts 27°
2026-05-05 16:18 42.75916 5.50422 37924 ft 502 kts 27°
2026-05-05 16:19 42.84847 5.57869 37923 ft 501 kts 28°
2026-05-05 16:19 42.93747 5.65316 37920 ft 500 kts 28°
2026-05-05 16:20 43.05548 5.75231 37907 ft 499 kts 28°
2026-05-05 16:22 43.20069 5.87491 37911 ft 497 kts 28°
2026-05-05 16:23 43.31827 5.97471 37902 ft 496 kts 28°
2026-05-05 16:23 43.40958 6.03500 37908 ft 484 kts
2026-05-05 16:24 43.46422 6.04734 37900 ft 474 kts 358°
2026-05-05 16:25 43.56301 6.05725 37911 ft 475 kts 358°
2026-05-05 16:25 43.66199 6.06732 37906 ft 475 kts 358°
2026-05-05 16:26 43.79109 6.09590 37914 ft 487 kts 15°
2026-05-05 16:27 43.85323 6.13445 37904 ft 491 kts 22°
2026-05-05 16:27 43.91450 6.17596 37918 ft 491 kts 22°
2026-05-05 16:28 43.97589 6.21771 37925 ft 491 kts 22°
2026-05-05 16:28 44.03476 6.25801 37923 ft 492 kts 22°
2026-05-05 16:29 44.09591 6.30001 37910 ft 489 kts 22°
2026-05-05 16:29 44.15678 6.34190 37914 ft 491 kts 22°
2026-05-05 16:30 44.21800 6.38413 37912 ft 491 kts 22°
2026-05-05 16:30 44.27750 6.42525 37917 ft 490 kts 22°
2026-05-05 16:31 44.33736 6.46672 37914 ft 490 kts 22°
2026-05-05 16:31 44.39840 6.50908 37916 ft 490 kts 22°
2026-05-05 16:32 44.45946 6.55156 37909 ft 489 kts 23°
2026-05-05 16:32 44.52024 6.59396 37913 ft 489 kts 23°
2026-05-05 16:33 44.58102 6.63647 37897 ft 487 kts 23°
2026-05-05 16:33 44.64156 6.67894 37898 ft 486 kts 23°
2026-05-05 16:34 44.70014 6.72008 37905 ft 487 kts 23°
2026-05-05 16:34 44.76094 6.76162 37912 ft 484 kts 17°
2026-05-05 16:35 44.82547 6.78436 37922 ft 475 kts
2026-05-05 16:35 44.89076 6.78431 37926 ft 468 kts 352°
2026-05-05 16:36 44.95537 6.78015 37918 ft 469 kts 352°
2026-05-05 16:36 45.02051 6.77593 37923 ft 469 kts 352°
2026-05-05 16:37 45.08584 6.77164 37927 ft 470 kts 352°
2026-05-05 16:37 45.15115 6.76732 37913 ft 468 kts 352°
2026-05-05 16:38 45.21600 6.76299 37916 ft 467 kts 352°
2026-05-05 16:38 45.28098 6.75862 37910 ft 467 kts 352°
2026-05-05 16:39 45.34604 6.75430 37907 ft 468 kts 352°
2026-05-05 16:39 45.41116 6.75099 37912 ft 471 kts 358°
2026-05-05 16:40 45.47595 6.76870 37914 ft 479 kts 17°
2026-05-05 16:40 45.53545 6.81181 37912 ft 486 kts 27°
2026-05-05 16:41 45.59398 6.86030 37917 ft 486 kts 27°
2026-05-05 16:41 45.65240 6.90877 37919 ft 484 kts 27°
2026-05-05 16:42 45.71066 6.95731 37934 ft 486 kts 28°
2026-05-05 16:42 45.76896 7.00606 37928 ft 484 kts 28°
2026-05-05 16:43 45.82712 7.05479 37928 ft 485 kts 28°
2026-05-05 16:43 45.88513 7.10352 37917 ft 483 kts 28°
2026-05-05 16:44 45.94310 7.15242 37917 ft 483 kts 28°
2026-05-05 16:44 46.00108 7.20147 37924 ft 484 kts 28°
2026-05-05 16:45 46.05910 7.25064 37910 ft 483 kts 28°
2026-05-05 16:45 46.11690 7.29976 37912 ft 481 kts 28°
2026-05-05 16:46 46.17469 7.34897 37911 ft 482 kts 28°
2026-05-05 16:46 46.23189 7.39782 37911 ft 481 kts 28°
2026-05-05 16:47 46.28899 7.44669 37914 ft 480 kts 28°
2026-05-05 16:47 46.34404 7.49394 37908 ft 479 kts 28°
2026-05-05 16:48 46.40120 7.54310 37899 ft 478 kts 28°
2026-05-05 16:48 46.45547 7.58989 37891 ft 477 kts 28°
2026-05-05 16:49 46.51236 7.63907 37884 ft 476 kts 28°
2026-05-05 16:49 46.56925 7.68835 37884 ft 476 kts 28°
2026-05-05 16:50 46.62651 7.73646 37889 ft 475 kts 25°
2026-05-05 16:50 46.68305 7.77881 37888 ft 474 kts 25°
2026-05-05 16:51 46.74166 7.82305 37891 ft 474 kts 25°
2026-05-05 16:51 46.80002 7.86783 37895 ft 474 kts 25°
2026-05-05 16:52 46.85833 7.91285 37888 ft 474 kts 26°
2026-05-05 16:52 46.91657 7.95794 37890 ft 474 kts 26°
2026-05-05 16:53 46.97442 8.00282 37870 ft 473 kts 26°
2026-05-05 16:53 47.03255 8.04802 37869 ft 473 kts 26°
2026-05-05 16:54 47.09066 8.09333 37880 ft 473 kts 26°
2026-05-05 16:54 47.14887 8.13882 37892 ft 473 kts 26°
2026-05-05 16:55 47.20703 8.18439 37893 ft 474 kts 26°
2026-05-05 16:55 47.26531 8.23016 37891 ft 473 kts 26°
2026-05-05 16:56 47.32179 8.27465 37889 ft 472 kts 26°
2026-05-05 16:56 47.37875 8.31960 37888 ft 472 kts 26°
2026-05-05 16:57 47.43657 8.36536 37884 ft 472 kts 26°
2026-05-05 16:57 47.49442 8.41125 37868 ft 472 kts 27°
2026-05-05 16:58 47.55216 8.45717 37864 ft 471 kts 27°
2026-05-05 16:58 47.60983 8.50316 37877 ft 470 kts 27°
2026-05-05 16:59 47.66746 8.54922 37870 ft 470 kts 27°
2026-05-05 16:59 47.72221 8.59309 37861 ft 470 kts 27°
2026-05-05 17:00 47.77980 8.63936 37837 ft 470 kts 27°
2026-05-05 17:00 47.83702 8.68544 37828 ft 470 kts 27°
2026-05-05 17:01 47.89487 8.73214 37836 ft 470 kts 27°
2026-05-05 17:01 47.95198 8.77836 37839 ft 470 kts 27°
2026-05-05 17:02 48.00946 8.82501 37830 ft 470 kts 27°
2026-05-05 17:02 48.06690 8.87174 37841 ft 470 kts 27°
2026-05-05 17:03 48.12338 8.91735 37831 ft 470 kts 24°
2026-05-05 17:03 48.18447 8.95059 37830 ft 466 kts 12°
2026-05-05 17:04 48.24844 8.96520 37826 ft 465 kts
2026-05-05 17:04 48.31286 8.97515 37800 ft 464 kts
2026-05-05 17:05 48.34491 8.98015 37505 ft 461 kts
2026-05-05 17:05 48.37682 8.98508 36924 ft 461 kts
2026-05-05 17:05 48.40877 8.98996 36213 ft 463 kts
2026-05-05 17:05 48.44090 8.99486 35472 ft 465 kts
2026-05-05 17:06 48.47310 8.99977 34743 ft 466 kts
2026-05-05 17:06 48.50545 9.00470 34010 ft 468 kts
2026-05-05 17:06 48.53790 9.00965 33118 ft 468 kts
2026-05-05 17:06 48.57020 9.01459 31985 ft 469 kts
2026-05-05 17:07 48.60291 9.01959 30810 ft 472 kts
2026-05-05 17:07 48.63565 9.02516 29636 ft 475 kts
2026-05-05 17:07 48.66810 9.03307 28681 ft 469 kts
2026-05-05 17:07 48.70007 9.04072 27836 ft 462 kts
2026-05-05 17:08 48.73168 9.04823 26972 ft 456 kts
2026-05-05 17:08 48.76275 9.05561 26121 ft 450 kts
2026-05-05 17:08 48.79360 9.06296 25472 ft 447 kts
2026-05-05 17:08 48.82420 9.07026 24923 ft 443 kts
2026-05-05 17:09 48.85446 9.07750 24394 ft 439 kts
2026-05-05 17:09 48.88416 9.08442 23862 ft 435 kts
2026-05-05 17:09 48.91459 9.08875 23316 ft 432 kts
2026-05-05 17:09 48.94434 9.09293 22718 ft 428 kts
2026-05-05 17:10 48.97347 9.09711 22158 ft 423 kts
2026-05-05 17:10 49.00262 9.10130 21621 ft 419 kts
2026-05-05 17:10 49.03146 9.10544 21102 ft 414 kts
2026-05-05 17:10 49.05997 9.10951 20577 ft 410 kts
2026-05-05 17:11 49.08826 9.11355 20055 ft 406 kts
2026-05-05 17:11 49.11631 9.11755 19540 ft 402 kts
2026-05-05 17:11 49.14404 9.12151 19039 ft 399 kts
2026-05-05 17:11 49.17157 9.12545 18529 ft 395 kts
2026-05-05 17:12 49.19882 9.12935 18013 ft 392 kts
2026-05-05 17:12 49.22583 9.13323 17459 ft 388 kts
2026-05-05 17:12 49.24356 9.13578 17172 ft 384 kts
2026-05-05 17:12 49.26993 9.13957 17067 ft 383 kts
2026-05-05 17:13 49.29661 9.14585 16963 ft 389 kts 12°
2026-05-05 17:13 49.32283 9.15537 16858 ft 387 kts 12°
2026-05-05 17:13 49.34899 9.16470 16817 ft 386 kts 11°
2026-05-05 17:13 49.37523 9.17399 16821 ft 387 kts 11°
2026-05-05 17:14 49.40149 9.18327 16825 ft 387 kts 11°
2026-05-05 17:14 49.42770 9.19256 16821 ft 387 kts 11°
2026-05-05 17:14 49.45408 9.20192 16828 ft 387 kts 11°
2026-05-05 17:14 49.48029 9.21124 16827 ft 388 kts 11°
2026-05-05 17:15 49.50655 9.22059 16824 ft 387 kts 11°
2026-05-05 17:15 49.53280 9.22995 16821 ft 388 kts 11°
2026-05-05 17:15 49.55910 9.23934 16823 ft 388 kts 11°
2026-05-05 17:15 49.58543 9.24875 16821 ft 388 kts 11°
2026-05-05 17:16 49.61176 9.25817 16823 ft 389 kts 11°
2026-05-05 17:16 49.63813 9.26762 16817 ft 388 kts 11°
2026-05-05 17:16 49.66442 9.27704 16821 ft 388 kts 11°
2026-05-05 17:16 49.69072 9.28648 16826 ft 388 kts 11°
2026-05-05 17:17 49.71701 9.29593 16829 ft 388 kts 11°
2026-05-05 17:17 49.74337 9.30541 16822 ft 388 kts 11°
2026-05-05 17:17 49.76964 9.31486 16823 ft 388 kts 12°
2026-05-05 17:17 49.79587 9.32430 16785 ft 384 kts 11°
2026-05-05 17:18 49.82190 9.32766 16643 ft 365 kts 352°
2026-05-05 17:18 49.84553 9.31789 16453 ft 340 kts 330°
2026-05-05 17:18 49.86398 9.29744 16161 ft 319 kts 310°
2026-05-05 17:18 49.87671 9.27005 15557 ft 310 kts 292°
2026-05-05 17:19 49.88363 9.23882 14936 ft 305 kts 282°
2026-05-05 17:19 49.88940 9.20710 14336 ft 303 kts 283°
2026-05-05 17:19 49.89525 9.17578 13773 ft 301 kts 283°
2026-05-05 17:19 49.90104 9.14513 13182 ft 299 kts 283°
2026-05-05 17:20 49.90697 9.11399 12573 ft 296 kts 283°
2026-05-05 17:20 49.91278 9.08350 11972 ft 294 kts 283°
2026-05-05 17:20 49.91846 9.05356 11383 ft 292 kts 283°
2026-05-05 17:20 49.92418 9.02340 10813 ft 290 kts 283°
2026-05-05 17:21 49.92991 8.99312 10246 ft 288 kts 283°
2026-05-05 17:21 49.93544 8.96383 9695 ft 286 kts 284°
2026-05-05 17:21 49.94462 8.93647 9054 ft 291 kts 308°
2026-05-05 17:22 49.98060 8.91078 7842 ft 295 kts 358°
2026-05-05 17:22 50.00099 8.91188 7306 ft 292 kts
2026-05-05 17:22 50.01978 8.92088 7103 ft 283 kts 32°
2026-05-05 17:22 50.03447 8.94200 7031 ft 291 kts 58°
2026-05-05 17:23 50.04285 8.97024 6899 ft 284 kts 71°
2026-05-05 17:23 50.04948 8.99902 6585 ft 282 kts 73°
2026-05-05 17:23 50.05583 9.02747 6412 ft 272 kts 73°
2026-05-05 17:23 50.06195 9.05450 6275 ft 256 kts 72°
2026-05-05 17:24 50.06779 9.07995 6015 ft 247 kts 72°
2026-05-05 17:24 50.07358 9.10500 5636 ft 245 kts 72°
2026-05-05 17:24 50.07935 9.12990 5270 ft 244 kts 71°
2026-05-05 17:24 50.08513 9.15477 4900 ft 244 kts 71°
2026-05-05 17:25 50.09361 9.17724 4536 ft 243 kts 44°
2026-05-05 17:25 50.10275 9.18723 4281 ft 241 kts 22°
2026-05-05 17:25 50.12403 9.18904 4112 ft 237 kts 339°
2026-05-05 17:25 50.13756 9.17502 4023 ft 233 kts 308°
2026-05-05 17:26 50.14439 9.15270 3998 ft 230 kts 284°
2026-05-05 17:26 50.14847 9.12852 3990 ft 230 kts 283°
2026-05-05 17:26 50.15247 9.10436 3991 ft 230 kts 283°
2026-05-05 17:26 50.15649 9.08025 3987 ft 230 kts 283°
2026-05-05 17:27 50.15705 9.05578 3994 ft 230 kts 251°
2026-05-05 17:27 50.14979 9.03356 3992 ft 230 kts 240°
2026-05-05 17:27 50.14245 9.01189 3989 ft 228 kts 245°
2026-05-05 17:27 50.13611 8.98873 3991 ft 229 kts 249°
2026-05-05 17:28 50.13053 8.96547 3992 ft 230 kts 249°
2026-05-05 17:28 50.12497 8.94215 3993 ft 229 kts 249°
2026-05-05 17:28 50.11942 8.91888 3996 ft 229 kts 249°
2026-05-05 17:28 50.11392 8.89578 3991 ft 221 kts 249°
2026-05-05 17:29 50.10882 8.87440 3991 ft 205 kts 249°
2026-05-05 17:29 50.10398 8.85409 3963 ft 189 kts 249°
2026-05-05 17:29 50.09955 8.83554 3717 ft 183 kts 249°
2026-05-05 17:29 50.09517 8.81718 3446 ft 179 kts 249°
2026-05-05 17:30 50.09083 8.79902 3191 ft 175 kts 250°
2026-05-05 17:30 50.08663 8.78140 2960 ft 174 kts 250°
2026-05-05 17:30 50.08247 8.76400 2729 ft 173 kts 250°
2026-05-05 17:30 50.07830 8.74653 2494 ft 172 kts 251°
2026-05-05 17:31 50.07414 8.72912 2275 ft 171 kts 251°
2026-05-05 17:31 50.07000 8.71175 2038 ft 171 kts 251°
2026-05-05 17:31 50.06590 8.69460 1810 ft 166 kts 251°
2026-05-05 17:31 50.06200 8.67829 1588 ft 154 kts 251°
2026-05-05 17:32 50.05838 8.66311 1405 ft 150 kts 251°
2026-05-05 17:32 50.05484 8.64834 1217 ft 139 kts 251°
2026-05-05 17:32 50.05159 8.63474 1039 ft 131 kts 251°
2026-05-05 17:32 50.04844 8.62150 876 ft 131 kts 250°
2026-05-05 17:33 50.04526 8.60821 703 ft 130 kts 250°
2026-05-05 17:33 50.04209 8.59498 535 ft 131 kts 249°
2026-05-05 17:33 50.03893 8.58181 378 ft 125 kts 249°
2026-05-05 17:33 50.03624 8.57065 354 ft 88 kts 249°
2026-05-05 17:34 50.03463 8.56393 358 ft 47 kts 250°
2026-05-05 17:34 50.03436 8.56073 351 ft 18 kts 275°
2026-05-05 17:34 50.03459 8.55859 344 ft 20 kts 280°
2026-05-05 17:34 50.03507 8.55707 350 ft 13 kts 334°
2026-05-05 17:35 50.03543 8.55724 350 ft 3 kts 41°
2026-05-05 17:35 50.03552 8.55741 347 ft 1 kts 52°
2026-05-05 17:35 50.03553 8.55744 347 ft 0 kts 53°
2026-05-05 17:35 50.03569 8.55793 353 ft 9 kts 65°
2026-05-05 17:36 50.03591 8.55883 354 ft 9 kts 71°
2026-05-05 17:36 50.03611 8.55974 355 ft 8 kts 71°
2026-05-05 17:36 50.03630 8.56055 354 ft 8 kts 69°
2026-05-05 17:36 50.03648 8.56126 357 ft 7 kts 68°
2026-05-05 17:37 50.03666 8.56196 360 ft 7 kts 68°
2026-05-05 17:37 50.03679 8.56249 361 ft 8 kts 69°
2026-05-05 17:37 50.03707 8.56368 355 ft 9 kts 70°
2026-05-05 17:37 50.03731 8.56471 354 ft 11 kts 70°
2026-05-05 17:38 50.03758 8.56587 359 ft 12 kts 70°
2026-05-05 17:38 50.03793 8.56734 358 ft 18 kts 69°
2026-05-05 17:38 50.03844 8.56946 355 ft 24 kts 69°
2026-05-05 17:38 50.03908 8.57214 361 ft 28 kts 70°
2026-05-05 17:39 50.03979 8.57509 368 ft 30 kts 70°
2026-05-05 17:39 50.04051 8.57812 367 ft 30 kts 70°
2026-05-05 17:39 50.04124 8.58112 372 ft 29 kts 70°
2026-05-05 17:39 50.04197 8.58415 369 ft 30 kts 69°
2026-05-05 17:40 50.04266 8.58707 370 ft 29 kts 70°
2026-05-05 17:40 50.04335 8.58991 376 ft 27 kts 69°
2026-05-05 17:40 50.04401 8.59268 376 ft 26 kts 69°
2026-05-05 17:40 50.04451 8.59450 375 ft 10 kts 52°
2026-05-05 17:41 50.04525 8.59471 374 ft 13 kts 356°
2026-05-05 17:41 50.04538 8.59470 374 ft 0 kts 356°
2026-05-05 17:41 50.04540 8.59469 373 ft 2 kts 356°
2026-05-05 17:41 50.04573 8.59466 373 ft 8 kts 355°
2026-05-05 17:42 50.04642 8.59460 372 ft 12 kts 355°
2026-05-05 17:42 50.04729 8.59425 372 ft 14 kts 340°
2026-05-05 17:42 50.04805 8.59379 371 ft 11 kts 338°
2026-05-05 17:42 50.04840 8.59269 368 ft 13 kts 263°
2026-05-05 17:43 50.04808 8.59122 370 ft 15 kts 247°
2026-05-05 17:43 50.04767 8.58956 370 ft 17 kts 250°
2026-05-05 17:43 50.04753 8.58774 368 ft 17 kts 296°
2026-05-05 17:43 50.04852 8.58700 367 ft 18 kts 339°
2026-05-05 17:44 50.04955 8.58705 363 ft 0 kts 59°
2026-05-05 17:44 50.04961 8.58721 363 ft 4 kts 62°
2026-05-05 17:44 50.04977 8.58784 366 ft 9 kts 67°
2026-05-05 17:44 50.04989 8.58831 364 ft 0 kts 70°
2026-05-05 17:45 50.04991 8.58831 363 ft 1 kts 48°
2026-05-05 17:45 50.04994 8.58830 364 ft 0 kts 16°
2026-05-05 17:45 50.05005 8.58817 361 ft 4 kts 328°
2026-05-05 17:45 50.05039 8.58786 361 ft 0 kts 329°
2026-05-05 17:46 50.05045 8.58780 361 ft 2 kts 329°
2026-05-05 17:46 50.05057 8.58769 359 ft 0 kts 329°
2026-05-05 17:46 50.05063 8.58764 362 ft 1 kts 329°
2026-05-05 17:46 50.05065 8.58762 361 ft 0 kts 330°
2026-05-05 17:47 50.05068 8.58759 360 ft 0 kts 330°